Location: Huesca
(42.1318°N, 0.4078°W)
Time: 19:47:34
(UTC+02:00)

YUBILEINY - Pass Details

Date: 25 April 2026
Orbit: 1477 x 1509 km, 82.5° (Epoch: 17 May)

Event Time Altitude Azimuth Distance (km) Brightness Sun altitude
Rises 02:08:36 0° 345° (NNW) 4,612 ? -34.7°
Reaches altitude 10° 02:11:41 10° 338° (NNW) 3,631 ? -34.7°
Maximum altitude 02:19:32 40° 274° (W) 2,078 ? -34.5°
Enters shadow 02:20:01 40° 267° (W) 2,086 ? -34.5°
